EW6322 Weather Reports


time (UTC)temp
C
wind
direction
speed
KPH
gust
KPH
rain 1hr
cm
rain 24hr
cm
rain mn
cm
humidity
%
barometer
mb
20260510011722 24 181 0.0 3.2 0.00 0.03 0.03 54 1007.0
20260510005530 24 169 0.0 1.6 0.00 0.03 0.03 50 1006.6
20260510004029 25 104 0.0 1.6 0.00 0.03 0.03 50 1006.6
20260510002530 25 112 0.0 3.2 0.00 0.03 0.03 47 1006.8
20260510001029 26 91 1.6 9.7 0.00 0.03 0.03 46 1006.7
20260509235529 26 125 1.6 6.4 0.00 0.03 0.03 44 1006.8
20260509234028 27 68 1.6 8.0 0.00 0.03 0.03 41 1007.1
20260509232529 30 124 1.6 11.3 0.00 0.56 0.03 36 1007.3
20260509231029 30 241 1.6 11.3 0.00 0.66 0.03 35 1007.6
20260509225530 31 138 1.6 9.7 0.00 1.02 0.03 37 1007.9
20260509224028 31 95 1.6 8.0 0.00 1.12 0.03 37 1008.1
20260509222528 31 169 1.6 8.0 0.00 1.12 0.03 35 1008.4
20260509221720 31 226 1.6 14.5 0.00 1.12 0.03 35 1008.4
20260509215529 31 163 1.6 6.4 0.00 1.12 0.03 35 1008.4
20260509214029 31 84 0.0 4.8 0.00 1.12 0.03 33 1008.6
20260509212530 31 175 1.6 8.0 0.00 1.12 0.03 34 1008.7
20260509211029 31 176 1.6 8.0 0.00 1.12 0.03 33 1008.9
20260509205529 31 84 1.6 11.3 0.00 1.12 0.03 33 1009.1
20260509204729 30 205 3.2 9.7 0.00 1.12 0.03 34 1009.1
20260509202529 30 259 3.2 11.3 0.00 1.12 0.03 36 1009.1
20260509201028 30 245 3.2 9.7 0.00 1.12 0.03 38 1009.5
20260509195529 30 88 1.6 4.8 0.00 1.12 0.03 36 1009.6
20260509194029 29 75 0.0 6.4 0.00 1.12 0.03 37 1009.7
20260509192529 30 63 1.6 6.4 0.00 1.12 0.03 37 1009.9
20260509191722 30 188 1.6 8.0 0.00 1.12 0.03 38 1010.0
20260509185529 30 163 0.0 4.8 0.00 1.12 0.03 41 1010.1
20260509184029 29 83 1.6 8.0 0.00 1.12 0.03 40 1010.4
20260509182529 28 28 0.0 4.8 0.00 1.12 0.03 43 1010.3
20260509181029 28 185 1.6 6.4 0.00 1.12 0.03 43 1010.4
20260509175529 27 250 1.6 6.4 0.00 1.12 0.03 44 1010.7
20260509174029 27 245 3.2 9.7 0.00 1.12 0.03 47 1010.8
20260509172529 27 158 1.6 6.4 0.00 1.12 0.03 52 1011.1
20260509171029 26 129 3.2 11.3 0.00 1.12 0.03 56 1011.1
20260509165528 26 172 3.2 9.7 0.00 1.12 0.03 55 1011.3
20260509164029 25 245 6.4 12.9 0.00 1.12 0.03 57 1011.1
20260509162530 25 178 3.2 9.7 0.00 1.12 0.03 61 1011.2
20260509161028 25 166 1.6 11.3 0.00 1.12 0.03 66 1011.1
20260509155529 24 180 3.2 11.3 0.00 1.12 0.03 67 1011.0
20260509154029 23 150 1.6 12.9 0.00 1.12 0.03 69 1011.0
20260509152529 23 162 1.6 9.7 0.00 1.12 0.03 74 1010.9
20260509151029 22 183 1.6 9.7 0.00 1.12 0.03 79 1011.1
20260509150236 22 171 0.0 8.0 0.00 1.12 0.03 88 1010.6
20260509144030 20 141 0.0 6.4 0.00 1.12 0.03 93 1010.2
20260509142528 19 46 1.6 8.0 0.00 1.12 0.03 94 1010.0
20260509141718 18 41 0.0 3.2 0.00 1.12 0.03 94 1009.8
20260509135528 18 220 0.0 1.6 0.00 1.12 0.03 95 1009.9
20260509134027 17 220 0.0 1.6 0.00 1.12 0.03 95 1009.9
20260509133221 16 220 0.0 1.6 0.00 1.12 0.03 95 1009.7
20260509131026 15 220 0.0 0.0 0.00 1.12 0.03 95 1009.5
20260509125522 15 219 0.0 1.6 0.00 1.12 0.03 95 1009.3
20260509124715 15 219 0.0 0.0 0.00 1.12 0.03 95 1009.1
20260509123906 13 219 0.0 0.0 0.00 1.12 0.03 95 1008.9
20260509121018 12 219 0.0 0.0 0.00 1.12 0.03 95 1008.9
20260509115518 12 219 0.0 0.0 0.00 1.12 0.03 95 1008.8
20260509114019 12 219 0.0 0.0 0.00 1.12 0.03 95 1008.5
20260509112517 13 219 0.0 0.0 0.03 1.12 0.03 95 1008.3
20260509111014 13 219 0.0 1.6 0.03 1.12 0.03 95 1008.1
20260509110212 13 219 0.0 0.0 0.03 1.12 0.03 95 1008.2
20260509104012 12 219 0.0 0.0 0.03 1.12 0.03 95 1008.0
20260509102511 13 219 0.0 0.0 0.00 1.09 0.00 95 1008.2
20260509101008 13 219 0.0 0.0 0.00 1.09 0.00 95 1008.5
20260509095506 13 219 0.0 0.0 0.00 1.09 0.00 95 1008.8
20260509094659 13 219 0.0 0.0 0.00 1.09 0.00 95 1008.7
20260509092502 13 219 0.0 0.0 0.00 1.09 0.00 95 1008.7
20260509091710 14 219 0.0 0.0 0.00 1.09 0.00 95 1008.6
20260509085502 14 219 0.0 0.0 0.00 1.09 0.00 95 1008.7
20260509084001 13 219 0.0 0.0 0.00 1.09 0.00 95 1008.7
20260509082500 14 219 0.0 0.0 0.00 1.09 0.00 95 1008.7
20260509081000 14 219 0.0 0.0 0.00 1.09 0.00 95 1008.9
20260509075501 15 219 0.0 0.0 0.00 1.09 0.00 95 1009.1
20260509074000 15 219 0.0 0.0 0.00 1.09 0.00 95 1009.1
20260509072502 15 219 0.0 0.0 0.00 1.09 0.00 95 1009.2
20260509071001 16 219 0.0 1.6 0.00 1.09 0.00 95 1009.3
20260509065502 15 219 0.0 1.6 0.00 1.09 0.00 95 1009.4
20260509064002 15 219 0.0 1.6 0.00 1.09 0.00 95 1009.3
20260509063856 15 219 0.0 1.6 0.00 1.09 0.00 95 1009.6
20260509061000 15 219 0.0 3.2 0.00 1.09 0.00 95 1009.7
20260509055502 15 219 0.0 0.0 0.00 1.09 0.00 95 1009.8
20260509054000 15 219 0.0 0.0 0.00 1.09 0.00 95 1009.8
20260509053156 16 219 0.0 1.6 0.00 1.09 0.00 95 1009.6
20260509051659 16 219 0.0 3.2 0.00 1.09 0.00 95 1009.4
20260509045503 16 219 0.0 3.2 0.00 1.09 1.09 95 1009.2
20260509044001 16 219 1.6 4.8 0.00 1.09 1.09 95 1008.8
20260509042503 16 219 3.2 8.0 0.00 1.09 1.09 95 1008.7
20260509041001 16 219 0.0 0.0 0.00 1.09 1.09 95 1008.5
20260509035503 16 219 1.6 4.8 0.00 1.09 1.09 95 1008.6
20260509034652 16 219 1.6 3.2 0.00 1.09 1.09 95 1008.4
20260509032502 16 219 0.0 4.8 0.00 1.09 1.09 95 1008.0
20260509031000 16 221 1.6 4.8 0.00 1.09 1.09 95 1007.6
20260509025500 16 220 0.0 4.8 0.00 1.09 1.09 95 1007.2
20260509024001 16 220 1.6 6.4 0.00 1.09 1.09 95 1007.0
20260509022501 16 243 1.6 4.8 0.00 1.09 1.09 95 1006.7
20260509021002 16 243 0.0 4.8 0.00 1.09 1.09 95 1006.7
20260509015500 17 187 3.2 8.0 0.00 1.09 1.09 95 1006.8
20260509015357 16 190 0.0 6.4 0.00 1.09 1.09 95 1006.6
20260509013157 16 54 1.6 8.0 0.00 1.09 1.09 95 1006.1